TRSI-2

导读

TRSI-2卫星是美国于2022年5月2日北京时间8点成功发射的人造卫星。该卫星延续了TRSI系列技术积累,聚焦空间技术验证领域,旨在测试新型星载通信模块与姿态控制算法。入轨后,卫星完成了初期平台测试,后续为美国低轨星座部署积累了关键的在轨数据,支撑美国航天领域小型卫星技术迭代与应用拓展。

基本信息
目录编号:
52420
目录名称:
TRSI-2
国际标识:
2022-047AC
轨道中心:
EARTH
卫星名称:
TRSI-2
卫星全名:
--
卫星状态:
已陨落 最后检测时间 2024-05-31
发射日期:
2022-05-02 UTC
国别 :
美国 (US)
星等 :
--
轨道信息
数据来源 国际轨道数据
星历时间: 2024-05-31T20:48:17+0800
轨道信息已过期773天
半长轴: 6551.458km
偏心率: 0.0015909
轨道倾角: 97.361°
近地点辐角 272.909°
升交点赤经 246.904°
平近点角 87.039°
近地点: 162.9km
远地点: 183.746km
周期: 87.956分钟
每日圈数: 16.371779
详细信息
使用方式:
暂无